Terug naar catalogus

STARLINK-11320

ActiefCommunicatieVLEO
NORAD 61942·PAYLOAD·🇺🇸 United States

Gelanceerd Nov 14, 2024 vanaf Vandenberg Space Force Base

Loading…

Volgende Passages (komende 24 uur)

TLE

VersSource: CelesTrak SupGP

Epoch: Sep 15, 2026, 02:00 UTC

1 61942C 24209D   26258.08381944  .00007425  00000+0  61150-4 0  2581
2 61942  53.1568 157.9587 0001184  77.8777 143.2870 15.69709914    18

Volg STARLINK-11320 in realtime met AllMySat

Download on the App Store